[[{"header":{"parameterUnit":"m.s-1","parameterCategory":1,"la1":30.2992,"la2":30.254,"lo1":-89.0895,"lo2":-89.0443,"dy":0.0025,"dx":0.0025,"nx":19,"ny":19,"refTime":"2026-05-12T03:00:00:Z","depth":0,"parameterNumber":2,"parameterNumberName":"U-component_of_WINDS"},"data":[0,0,0,-0.5728,-0.5729,-0.5757,-0.5757,-0.5799,-0.58,0,0,0,0,0,0,0,0,0,0,0,-0.5723,-0.5724,-0.5728,-0.5729,-0.5757,-0.5757,-0.5799,-0.58,0,0,0,0,0,0,0,0,0,0,0,-0.5723,-0.5723,-0.5724,-0.5729,-0.5756,-0.5757,-0.5799,-0.5776,0,0,0,0,0,0,0,0,0,0,-0.5748,-0.5746,-0.5723,-0.5724,-0.5729,-0.5756,-0.5757,-0.5775,-0.5778,-0.579,0,-0.58,0,-0.5801,-0.5803,-0.5803,0,0,0,-0.5727,-0.5744,-0.5748,-0.5724,-0.5729,-0.5756,-0.5743,-0.5776,-0.5779,-0.5793,-0.5801,-0.5802,-0.5801,-0.5803,-0.5804,-0.5876,-0.5877,0,0,-0.5725,-0.573,-0.5746,-0.5751,-0.5745,-0.5743,-0.5744,-0.5778,-0.5787,-0.5801,-0.5803,-0.5802,-0.5804,-0.5804,-0.5876,-0.5876,0,0,0,-0.5722,-0.573,-0.5733,-0.5749,-0.5753,-0.5743,-0.5745,-0.5786,-0.5786,-0.5803,-0.5803,-0.5804,-0.5805,-0.5875,-0.5876,-0.5902,0,0,0,-0.5721,-0.5728,-0.5732,-0.5736,-0.5753,-0.577,-0.5753,-0.5784,-0.5787,-0.5802,-0.5804,-0.5805,-0.5875,-0.5876,-0.59,-0.5914,0,0,0,-0.572,-0.5727,-0.5732,-0.5736,-0.5748,-0.5769,-0.5771,-0.5784,-0.5787,-0.5803,-0.5805,-0.5875,-0.5876,-0.5899,-0.5911,-0.5934,0,0,0,-0.5721,-0.5756,-0.5733,-0.5771,-0.5747,-0.5784,-0.5771,-0.5798,-0.5815,-0.5804,-0.5875,-0.5876,-0.5898,-0.5909,-0.5932,-0.5954,-0.5964,0,0,-0.5768,-0.5762,-0.5784,-0.5764,-0.5806,-0.5779,-0.5825,-0.5837,-0.5835,-0.5863,-0.5865,-0.5901,-0.5911,-0.5934,-0.6014,-0.6022,0,0,0,-0.5801,-0.5817,-0.5827,-0.5842,-0.5851,-0.5859,-0.5863,-0.5867,-0.589,-0.585,-0.5915,-0.5921,-0.5934,-0.5944,-0.5951,-0.5961,-0.5881,-0.5881,-0.5881,-0.5876,-0.5869,-0.5905,-0.5902,-0.5917,-0.5919,-0.5931,-0.5937,-0.5928,-0.5943,-0.5952,-0.6001,-0.6013,-0.6018,-0.603,-0.5962,-0.5963,-0.5963,-0.5963,-0.5944,-0.5966,-0.595,-0.5979,-0.5972,-0.5997,-0.6001,-0.5993,-0.6016,-0.5995,-0.6006,-0.5984,-0.6027,-0.6036,-0.5965,-0.5964,-0.5964,-0.5964,-0.5964,-0.5993,-0.6002,-0.6005,-0.6025,-0.6042,-0.6038,-0.606,-0.6053,-0.6047,-0.6058,-0.6066,-0.6066,-0.6065,-0.6062,-0.6062,-0.6062,-0.6063,-0.6063,-0.6063,-0.6043,-0.6045,-0.6064,-0.6074,-0.6082,-0.6092,-0.6094,-0.6102,-0.611,-0.6104,-0.6104,-0.6092,-0.6032,-0.6017,-0.6065,-0.6065,-0.6065,-0.6064,-0.6064,-0.6116,-0.6097,-0.6126,-0.6134,-0.6145,-0.6162,-0.6152,-0.617,-0.6176,-0.6187,-0.6172,-0.6128,-0.6122,-0.6117,-0.6105,-0.6173,-0.6173,-0.6173,-0.6173,-0.6157,-0.6152,-0.6179,-0.6193,-0.6205,-0.6198,-0.6232,-0.6233,-0.6232,-0.6235,-0.6224,-0.6207,-0.6202,-0.6198,-0.6192,-0.618,-0.6266,-0.6266,-0.6266,-0.6201,-0.6197,-0.6227,-0.6223,-0.6231,-0.6238,-0.6269,-0.6286,-0.6281,-0.627,-0.6237,-0.6234,-0.6206,-0.6197,-0.6187,-0.6176,-0.6155,0,0]},{"header":{"parameterUnit":"m.s-1","parameterCategory":1,"la1":30.2992,"la2":30.254,"lo1":-89.0895,"lo2":-89.0443,"dy":0.0025,"dx":0.0025,"nx":19,"ny":19,"refTime":"2026-05-12T03:00:00:Z","depth":0,"parameterNumber":3,"parameterNumberName":"V-component_of_WINDS"},"data":[0,0,0,0.9727,0.9728,0.9763,0.9763,0.984,0.9841,0,0,0,0,0,0,0,0,0,0,0,0.9736,0.9737,0.9727,0.9729,0.9763,0.9763,0.984,0.9841,0,0,0,0,0,0,0,0,0,0,0,0.9735,0.9737,0.9738,0.9729,0.9763,0.9763,0.9839,0.9802,0,0,0,0,0,0,0,0,0,0,0.9763,0.9789,0.9736,0.9738,0.9729,0.9763,0.9763,0.98,0.9804,0.9838,0,0.9872,0,0.9858,0.9848,0.9848,0,0,0,0.9715,0.9785,0.9777,0.9738,0.973,0.9763,0.9744,0.9802,0.9807,0.9844,0.9872,0.9874,0.9859,0.9849,0.9849,1.0086,1.0088,0,0,0.9713,0.9752,0.9774,0.9782,0.9777,0.9743,0.9745,0.9805,0.9838,0.9873,0.9876,0.986,0.9849,0.985,1.0085,1.0087,0,0,0,0.9717,0.9752,0.9742,0.978,0.9783,0.9744,0.9746,0.9836,0.9829,0.9876,0.9861,0.985,0.9851,1.0083,1.0085,1.0211,0,0,0,0.9715,0.9754,0.9742,0.9766,0.9783,0.9809,0.9777,0.9825,0.983,0.9861,0.985,0.9852,1.0081,1.0084,1.0204,1.0265,0,0,0,0.9727,0.9755,0.9766,0.9768,0.9784,0.9807,0.9804,0.9825,0.9822,0.9848,0.9852,1.0079,1.0084,1.0197,1.0254,1.0341,0,0,0,0.9752,0.9877,0.9769,0.9902,0.9784,0.9884,0.9803,0.9876,0.9913,0.985,1.0081,1.0085,1.0195,1.0247,1.0334,1.0424,1.0464,0,0,0.9932,0.99,0.9975,0.988,1.0009,0.9876,1.0024,1.0021,0.9988,1.0056,1.0061,1.0206,1.0253,1.034,1.0671,1.0703,0,0,0,1.0046,1.0101,1.0127,1.0164,1.0164,1.0171,1.0141,1.014,1.0196,1.003,1.0258,1.0285,1.0335,1.0376,1.0403,1.0445,1.0105,1.0105,1.0104,1.0358,1.0309,1.0431,1.0386,1.0423,1.0392,1.0418,1.0412,1.035,1.0405,1.0426,1.0633,1.0683,1.0703,1.0747,1.0467,1.0467,1.0467,1.0468,1.062,1.0691,1.0606,1.0695,1.0643,1.0717,1.0692,1.0646,1.0709,1.0612,1.0653,1.0556,1.074,1.0776,1.0477,1.0475,1.0474,1.0473,1.0473,1.0821,1.0847,1.0843,1.0893,1.0937,1.0886,1.0951,1.09,1.0852,1.0892,1.0911,1.0909,1.0903,1.0904,1.0905,1.0906,1.0906,1.0907,1.0907,1.1034,1.1025,1.1085,1.1097,1.1115,1.1132,1.1101,1.1118,1.1124,1.1082,1.1082,1.1018,1.0765,1.0705,1.0918,1.0916,1.0915,1.0914,1.0913,1.1323,1.1249,1.1343,1.1361,1.1371,1.142,1.1352,1.1391,1.1397,1.1432,1.1358,1.1179,1.1143,1.1121,1.1071,1.1366,1.1366,1.1366,1.1366,1.1496,1.1472,1.1557,1.159,1.1615,1.1565,1.1675,1.1652,1.1618,1.1619,1.1568,1.1497,1.1476,1.1453,1.1423,1.1376,1.1742,1.1742,1.1743,1.1672,1.1648,1.1752,1.1716,1.172,1.1725,1.1828,1.1871,1.1816,1.1757,1.162,1.1604,1.1488,1.1452,1.1393,1.1349,1.1261,0,0]}]]